Regional Weather Roundup
Issued by NWS Northern Indiana

Home | Current Version | Previous Version | Text Only | Print | Product List | Glossary Off
Versions: 1 2 3 4 5 6 7 8 9 10 11 12 13 14 15 16 17 18 19 20 21 22 23 24 25 26 27 28 29 30 31 32 33 34 35 36 37 38 39 40 41 42 43 44 45 46 47 48 49 50

000
ASUS43 KIWX 210500
RWRIWX

KIWX WEATHER ROUNDUP
NATIONAL WEATHER SERVICE NORTHERN INDIANA
100 AM EDT SUN SEP 21 2014

NOTE: "FAIR" INDICATES FEW OR NO CLOUDS BELOW 12,000 FEET WITH NO
SIGNIFICANT WEATHER AND/OR OBSTRUCTIONS TO VISIBILITY.

* THESE STATIONS ARE NOT UNDER NWS QUALITY CONTROL. THEY ALSO MAY NOT
  REPORT WEATHER SUCH AS PRECIPITATION OR FOG.

INZ001>027-210600-
NORTHERN INDIANA

CITY           SKY/WX    TMP DP  RH WIND       PRES   REMARKS
VALPARAISO     PTCLDY    66  65  96 SW9       29.78F
SOUTH BEND     MOCLDY    67  65  93 SW9       29.76F
GOSHEN         MOCLDY   N/A N/A N/A SW12      29.78F
ANGOLA*        MOCLDY    66  57  72 SW9       29.79F
FORT WAYNE     LGT RAIN  66  64  93 W3        29.83F
PERU/GRISSOM   LGT RAIN  68  68 100 SW14      29.82F

$$
INZ028>050-210600-
CENTRAL INDIANA

CITY           SKY/WX    TMP DP  RH WIND       PRES   REMARKS
LAFAYETTE      LGT RAIN  69  68  96 W8        29.81F
KOKOMO*        CLOUDY    68  64  88 SW7       29.84R
MUNCIE*        MOCLDY    70  65  84 S8        29.84F
INDIANAPOLIS   MOCLDY    71  66  84 SW13      29.86F

$$
MIZ043>046-050>051-056>058-064>065-071>073-077>080-210600-
SOUTHWEST LOWER MICHIGAN

CITY           SKY/WX    TMP DP  RH WIND       PRES   REMARKS
BATTLE CREEK   CLOUDY    66  64  93 SW12      29.76F
BENTON HARBOR  PTCLDY    65  64  97 S7        29.73F FOG
COLDWATER*     CLOUDY    67  65  96 SW8       29.77F
HILLSDALE*     MOCLDY    65  65 100 SW6       29.79F
HOLLAND        PTCLDY    67  64  90 S9        29.70F
GRAND RAPIDS   MOCLDY    66  66 100 S10       29.71F FOG
KALAMAZOO      CLOUDY    67  64  90 SW9       29.75F FOG
STURGIS*       CLOUDY    64  64 100 S8        29.77F
THREE RIVERS*  MOCLDY    65  65  97 S6        29.76F FOG

$$
OHZ001>008-015>018-024>025-210600-
NORTHWEST OHIO

CITY           SKY/WX    TMP DP  RH WIND       PRES   REMARKS
DEFIANCE       CLOUDY   N/A N/A N/A S6        29.81F
FINDLAY        CLOUDY    65  61  87 S12       29.82F
TOLEDO EXPRESS LGT RAIN  64  63  96 SW12      29.80F
TOLEDO METCALF LGT RAIN  65  61  87 S13       29.82F
LIMA           CLOUDY    67  63  87 S8        29.84F

$$
AND FOR LAKE MICHIGAN COASTAL AND OPEN LAKE BUOY OBSERVATIONS

STATION/POSITION TEMP    WIND        PRES    VSBY  WAVE
                 AIR SEA DIR/SP/G                  HT/PER
                 (F)     (DEG/KT/KT) (MB)    (MI)  (FT/S)
CALUMET HARBOR    69     190/  8/ 10 1006.2F
MICHIGAN CITY     69     170/ 11/ 14   N/A
SAINT JOSEPH      67     150/  4/ 17 1007.1F
SOUTH LAKE BUOY   67 63  280/ 10/ 17 1006.6F         1/ 3
4 MI NW BRIDGMAN  67 65  170/ 12/ 14   N/A           2/ 3
MICHIGAN CITY     68 66  190/ 14/ 16   N/A           1/ 2

$$
&&



USA.gov is the U.S. government's official web portal to all federal, state and local government web resources and services.